7 * 24
多渠道服务支持
STARLINK-32358 是 SpaceX Starlink 项目中的一颗低轨通信卫星,属于第三代 Starlink 卫星(v1.5 或 v2 版本)。该卫星于 2023 年发射,旨在为全球提供高速互联网服务。它运行在约 550 公里的轨道高度,具备先进的相控阵天线和激光通信能力,以提升网络性能和减少延迟。作为 Starlink 卫星群的一部分,它支持全球范围内的宽带接入,特别是在偏远和网络基础设施薄弱的地区。
  
                美国
                (US)
                | 数据来源 | 国际轨道数据 | 
| 星历时间: | 2025-11-02T19:05:16+0800 1天前 查看轨道信息 | 
| 半长轴: | 6853.384km | 
| 偏心率: | 0.0001273 | 
| 轨道倾角: | 53.161° | 
| 近地点辐角 | 75.710° | 
| 升交点赤经 | 13.388° | 
| 平近点角 | 284.404° | 
| 近地点: | 474.376km | 
| 远地点: | 476.122km | 
| 周期: | 94.106分钟 | 
| 每日圈数: | 15.301896 |